{"data":{"norad_id":66852,"intl_designator":"2025-281E","name":"STARLINK-35992","alt_names":[],"object_type":"PAYLOAD","status":"ACTIVE","operator":null,"country":"US","launch_date":"2025-12-02","launch_site_code":"AFETR","launch_vehicle":null,"mission":null,"orbit_class":"UNKNOWN","rcs_meters":null,"size_class":null,"mass_kg":null,"dimensions":null,"purposes":["comms"],"wikipedia_slug":null,"has_3d_model":false,"image_url":null,"decayed_at":null,"tle_current":{"epoch":"2026-09-20T10:52:16.842144Z","epoch_age_seconds":88584,"freshness":"FRESH","line1":"1 66852U 25281E   26263.45297271  .00010897  00000+0  40483-3 0  9997","line2":"2 66852  43.0013 323.4146 0001796 276.7624  83.3024 15.27586312 45975","mean_motion":15.27586312,"eccentricity":0.0001796,"inclination_deg":43.0013,"raan_deg":323.4146,"arg_perigee_deg":276.7624,"mean_anomaly_deg":83.3024,"bstar":0.00040483,"rev_number":4597,"period_min":94.266359202622,"perigee_km":481.79793007766,"apogee_km":484.26246133435,"semimajor_km":6861.167195706,"source":"CELESTRAK","updated_at":"2026-09-21T09:00:36.026289Z"}}}